Regional Weather Roundup
Issued by NWS Jackson, KY

Home | Current Version | Previous Version | Text Only | Print | Product List | Glossary Off
Versions: 1 2 3 4 5 6 7 8 9 10 11 12 13 14 15 16 17 18 19 20 21 22 23 24 25 26 27 28 29 30 31 32 33 34 35 36 37 38 39 40 41 42 43 44 45 46 47 48 49 50

000
ASUS43 KJKL 252310
RWRJKL

EAST KENTUCKY HOURLY WEATHER ROUNDUP
NATIONAL WEATHER SERVICE JACKSON KY
700 PM EDT MON MAY 25 2015

NOTE: "FAIR" INDICATES FEW OR NO CLOUDS BELOW 12,000 FEET WITH
NO SIGNIFICANT WEATHER AND/OR OBSTRUCTIONS TO VISIBILITY.

* THESE REPORTS ARE NOT UNDER NWS QUALITY CONTROL AND MAY NOT
  REPORT WEATHER SUCH AS PRECIPITATION AND FOG.

KYZ079-080-083-085-087-088-110-112-115-119-120-260000
...EASTERN KENTUCKY...

CITY           SKY/WX    TMP DP  RH WIND       PRES   REMARKS
JACKSON        PTSUNNY   80  62  54 CALM      30.17F
LONDON         PTSUNNY   81  58  45 S9        30.16S
SOMERSET*      CLOUDY    70  64  83 SW7       30.17R
MONTICELLO*    CLOUDY    73  66  78 S6        30.19R
MIDDLESBORO*   MOSUNNY   82  62  51 S3        30.18S
HARLAN APT*    MOCLDY    81  55  41 CALM      30.19S
HAZARD APT*    CLEAR     82  59  44 S8        30.17
BLACK MTN*       N/A     68  59  73 S2          N/A
PIKEVILLE APT* SUNNY     79  61  53 W3        30.18S
BIG SANDY*     MOCLDY    81  64  55 W3        30.17S
MOREHEAD APT*  MOCLDY    77  63  61 SW5       30.17S
$$

KYZ035-036-041-042-044-050-067-078-099-260000
...CENTRAL KENTUCKY...

CITY           SKY/WX    TMP DP  RH WIND       PRES   REMARKS
MT STERLING*   CLOUDY    79  64  61 S5        30.15F
FLEMING/MASON* SUNNY     75  64  69 W5        30.15F
DANVILLE*      CLOUDY    70  68  94 SW7       30.16R
RICHMOND*      CLOUDY    79  63  57 S9        30.13S
LEXINGTON      CLOUDY    74  65  73 CALM      30.13F
FRANKFORT      CLOUDY    73  64  73 SE5       30.11F
$$

KYZ091>093-OHZ055-061-077-WVZ005-015-034-035-042-260000
...SOUTHERN OHIO/WEST VIRGINIA...

CITY           SKY/WX    TMP DP  RH WIND       PRES   REMARKS
COVINGTON      CLOUDY    73  64  73 S10       30.11F
COLUMBUS       PTSUNNY   81  59  47 SW18G26   30.08S
DAYTON         PTSUNNY   77  64  64 SW16      30.10R
WILMINGTON     MOSUNNY   76  60  57 S16       30.10S
HUNTINGTON     PTSUNNY   79  64  60 W3        30.13F
CHARLESTON     MOSUNNY   84  60  44 SW7       30.14S
PINEVILLE*     MOSUNNY   75  64  68 MISG      30.23S
BECKLEY        MOSUNNY   79  56  45 S10       30.23S
BLUEFIELD      SUNNY     77  57  50 S9        30.27S
$$

VAZ002-007-008-TNZ017-027-036-066-071-260000
...SOUTHWEST VIRGINIA/EAST TENNESSEE...

CITY           SKY/WX    TMP DP  RH WIND       PRES   REMARKS
WISE*          PTSUNNY   77  54  44 SW9       30.26S
JONESVILLE*    MOCLDY    82  59  44 SW5       30.21S
ABINGDON*      SUNNY     80  55  41 CALM      30.22S
BRISTOL        PTSUNNY   85  56  37 W8        30.19S
KNOXVILLE      PTSUNNY   82  59  45 S8        30.17
OAK RIDGE      MOSUNNY   82  62  50 SW6       30.18F
CROSSVILLE     LGT RAIN  69  65  86 S3        30.22F FOG
NASHVILLE      CLOUDY    73  67  81 SE3       30.12F
$$

...KEY TO REMARKS...
VSB - VISIBILITY IN MILES
WCI - WIND CHILL INDEX
HX  - HEAT INDEX

$$



USA.gov is the U.S. government's official web portal to all federal, state and local government web resources and services.